Location: Unspecified
(43.8413°N, 0.0000°E)
Time: 02:57:35
(UTC+00:00)

Explorer 7 - All Passes

Search period start: 04 April 2026 00:00
Search period end: 14 April 2026 00:00
Orbit: 429 x 539 km, 50.2° (Epoch: 29 March)

Date Brightness Start Highest point End Pass type
(mag) Time Alt. Az. Time Alt. Az. Time Alt. Az.
4 Apr - 00:00:22 10° WNW 00:03:50 30° N 00:07:11 10° ENE night (unlit)
4 Apr - 01:39:10 10° NW 01:42:47 42° NNE 01:46:16 10° E night (unlit)
4 Apr - 03:17:38 10° WNW 03:21:11 47° SW 03:24:36 10° SE visible
4 Apr - 20:16:07 10° SSW 20:19:41 31° SE 20:23:11 10° ENE visible
4 Apr - 21:53:58 10° WSW 21:57:55 60° NNW 22:01:45 10° ENE visible
4 Apr - 23:33:15 10° WNW 23:36:46 31° N 23:40:09 10° ENE night (unlit)
5 Apr - 01:12:06 10° NW 01:15:44 41° NNE 01:19:14 10° E night (unlit)
5 Apr - 02:50:33 10° WNW 02:54:10 50° SW 02:57:37 10° SE night (unlit)
5 Apr - 19:49:07 10° SSW 19:52:38 29° SE 19:56:05 10° ENE visible
5 Apr - 21:26:51 10° WSW 21:30:49 63° NNW 21:34:41 10° ENE visible
5 Apr - 23:06:08 10° WNW 23:09:39 31° N 23:13:05 10° ENE night (unlit)
6 Apr - 00:45:00 10° NW 00:48:39 40° NNE 00:52:08 10° E night (unlit)
6 Apr - 02:23:26 10° WNW 02:27:06 54° SW 02:30:37 10° SE night (unlit)
6 Apr - 19:22:05 10° SSW 19:25:32 27° SE 19:28:56 10° E visible
6 Apr - 20:59:42 10° WSW 21:03:42 66° NNW 21:07:36 10° ENE visible
6 Apr - 22:38:58 10° WNW 22:42:32 31° N 22:46:00 10° ENE visible
7 Apr - 00:17:52 10° NW 00:21:32 39° NNE 00:25:02 10° E night (unlit)
7 Apr - 01:56:18 10° WNW 02:00:01 58° SW 02:03:34 10° SE night (unlit)
7 Apr - 18:55:02 10° SSW 18:58:25 26° SE 19:01:46 10° E visible
7 Apr - 20:32:32 10° WSW 20:36:34 69° NNW 20:40:30 10° ENE visible
7 Apr - 22:11:46 10° WNW 22:15:22 32° N 22:18:52 10° ENE visible
7 Apr - 23:50:42 10° NW 23:54:22 38° NNE 23:57:53 10° E night (unlit)
8 Apr - 01:29:08 10° WNW 01:32:53 63° SSW 01:36:30 10° SE night (unlit)
8 Apr - 18:27:58 10° SSW 18:31:17 24° SE 18:34:33 10° E daylight
8 Apr - 20:05:20 10° WSW 20:09:23 73° NNW 20:13:21 10° ENE visible
8 Apr - 21:44:32 10° WNW 21:48:10 32° N 21:51:42 10° ENE visible
8 Apr - 23:23:30 10° WNW 23:27:11 37° NNE 23:30:43 10° E night (unlit)
9 Apr - 01:01:57 10° WNW 01:05:44 67° SSW 01:09:22 10° SE night (unlit)
9 Apr - 02:42:23 10° WSW 02:43:25 11° SW 02:44:26 10° SSW night (unlit)
9 Apr - 18:00:53 10° S 18:04:06 23° SE 18:07:18 10° E daylight
9 Apr - 19:38:07 10° WSW 19:42:11 77° NNW 19:46:10 10° ENE visible
9 Apr - 21:17:17 10° WNW 21:20:57 33° N 21:24:32 10° ENE visible
9 Apr - 22:56:17 10° WNW 22:59:58 37° NNE 23:03:31 10° E visible
10 Apr - 00:34:43 10° WNW 00:38:34 72° SSW 00:42:14 10° SE night (unlit)
10 Apr - 02:14:47 10° WSW 02:16:16 12° SW 02:17:43 10° SSW night (unlit)
10 Apr - 17:33:47 10° S 17:36:54 21° SE 17:40:00 10° E daylight
10 Apr - 19:10:52 10° WSW 19:14:57 81° NNW 19:18:58 10° ENE visible
10 Apr - 20:50:01 10° WNW 20:53:42 34° N 20:57:19 10° ENE visible
10 Apr - 22:29:02 10° WNW 22:32:43 36° NNE 22:36:17 10° E visible
11 Apr - 00:07:28 10° WNW 00:11:20 77° SSW 00:15:02 10° SE night (unlit)
11 Apr - 01:47:16 10° WSW 01:49:05 13° SW 01:50:52 10° SSW night (unlit)
11 Apr - 17:06:41 10° S 17:09:41 20° SE 17:12:40 10° E daylight
11 Apr - 18:43:36 10° WSW 18:47:41 85° NNW 18:51:43 10° ENE daylight
11 Apr - 20:22:41 10° WNW 20:26:25 34° N 20:30:03 10° ENE visible
11 Apr - 22:01:44 10° WNW 22:05:26 36° N 22:09:01 10° E visible
11 Apr - 23:40:11 10° WNW 23:44:05 82° SSW 23:47:49 10° ESE night (unlit)
12 Apr - 01:19:48 10° W 01:21:53 14° SW 01:23:56 10° SSW night (unlit)
12 Apr - 16:39:33 10° S 16:42:25 19° SE 16:45:18 10° E daylight
12 Apr - 18:16:18 10° WSW 18:20:24 89° NNW 18:24:26 10° ENE daylight
12 Apr - 19:55:21 10° WNW 19:59:06 35° N 20:02:46 10° ENE visible
12 Apr - 21:34:26 10° WNW 21:38:08 35° N 21:41:43 10° ENE visible
12 Apr - 23:12:52 10° WNW 23:16:48 87° SW 23:20:34 10° ESE visible
13 Apr - 00:52:19 10° W 00:54:38 16° SW 00:56:55 10° S night (unlit)
13 Apr - 16:12:25 10° S 16:15:09 17° SE 16:17:52 10° E daylight
13 Apr - 17:48:59 10° WSW 17:53:04 86° SSE 17:57:08 10° ENE daylight
13 Apr - 19:27:59 10° W 19:31:46 36° N 19:35:28 10° ENE visible
13 Apr - 21:07:04 10° WNW 21:10:47 35° N 21:14:23 10° ENE visible
13 Apr - 22:45:32 10° WNW 22:49:29 89° NNE 22:53:17 10° ESE visible
